Content
SEND FEEDBACK

Daily
Averages
Monthly
Summary
United States of America

MARBLEHEAD, OHIO


Home > North America > United States > Ohio
Elevation: 630 feet     Latitude: 41 30N     Longitude: 082 42W

WEATHER
 
SELECT A DAY
Number of Records: 183,666;   Date Range: 10/8/98 - 10/19/14
 
SHARE

PRINT THIS DATA

[ ← Previous Day ]
WEATHER ALMANAC - MARCH 6, 2013
[ Next Day → ]
[ °C ]   °F
Weather ElementAverageHighLow
Temperature35.1 °F43 °F (1:53 pm)30.9 °F (9:53 pm)
Dewpoint28.7 °F32 °F (11:53 am)27 °F (1:53 am)
Humidity78.4 %92 % (9:53 pm)58 % (2:53 pm)
Barometer30.01 in30.20 in (9:53 pm)29.72 in (1:53 am)
Wind Speed10.6 mph16.1 mph (1:53 am)
Wind Gust25.3 mph (1:53 am)
Weather ElementAverage
Visibility9.7 mi
Wind DirectionESE (121.7 °)

Weather ElementTotal
Precipitation---
Heating Degree Days28.1 (Base 65)
Averaged from 24 records on March 6, 2013
WEATHER CONDITIONS BREAKOUT
WIND DIRECTION BREAKOUT
WEATHER BY HOUR - MARCH 6, 2013
[ °C ]   °F
Local TimeTemperatureDewpointHumidityBarometerVisibilityWind DirectionWind SpeedGust SpeedPrecipitationEventsConditions
1:53 AM32.0 °F27.0 °F82 %29.72 in10.0 miENE (60°)16.1 mph25.3 mphClear
2:53 AM32.0 °F27.0 °F82 %29.73 in10.0 miENE (60°)12.7 mph21.9 mphOvercast
3:53 AM32.0 °F27.0 °F82 %29.76 in9.0 miENE (70°)15.0 mphOvercast
4:53 AM32.0 °F27.0 °F82 %29.79 in10.0 miENE (60°)16.1 mphOvercast
5:53 AM32.0 °F27.0 °F82 %29.83 in10.0 miNE (50°)12.7 mphOvercast
6:53 AM32.0 °F27.0 °F82 %29.88 in10.0 miENE (60°)13.8 mphOvercast
7:53 AM32.0 °F27.0 °F82 %29.93 in10.0 miENE (60°)12.7 mphOvercast
8:53 AM33.1 °F28.0 °F82 %29.97 in10.0 miENE (60°)12.7 mphOvercast
9:35 AM33.8 °F28.4 °F81 %29.97 in10.0 miNE (50°)10.4 mphOvercast
9:53 AM35.1 °F28.9 °F78 %30.00 in10.0 miENE (60°)12.7 mphMostly Cloudy
10:53 AM37.0 °F28.9 °F73 %30.03 in10.0 miENE (60°)11.5 mphPartly Cloudy
11:53 AM39.9 °F32.0 °F73 %30.05 in10.0 miNE (40°)10.4 mphClear
12:53 PM41.0 °F32.0 °F70 %30.06 in10.0 miNE (40°)10.4 mphClear
1:53 PM43.0 °F30.0 °F60 %30.05 in10.0 miNNE (20°)11.5 mphClear
2:53 PM43.0 °F28.9 °F58 %30.07 in10.0 miNNE (30°)9.2 mphClear
3:53 PM43.0 °F30.9 °F62 %30.09 in10.0 miNE (50°)8.1 mphClear
4:53 PM37.9 °F28.9 °F70 %30.11 in10.0 miENE (60°)12.7 mphClear
5:53 PM37.0 °F28.0 °F70 %30.13 in10.0 miENE (60°)10.4 mphClear
6:53 PM34.0 °F28.9 °F82 %30.17 in10.0 miNorth (360°)6.9 mphClear
7:53 PM32.0 °F28.9 °F88 %30.19 in10.0 miNNW (340°)5.8 mphClear
8:53 PM32.0 °F28.9 °F88 %30.19 in8.0 miNW (320°)4.6 mphClear
9:53 PM30.9 °F28.9 °F92 %30.20 in7.0 miNW (320°)6.9 mphClear
10:53 PM32.0 °F30.0 °F92 %30.20 in8.0 miWNW (300°)4.6 mphOvercast
11:53 PM33.1 °F30.0 °F89 %30.20 in10.0 miNNW (330°)5.8 mphOvercast
Hourly data recorded from KLPR, located miles away from Marblehead, Ohio







STORIES FROM OUR PARTNERS